www.pogodaiklimat.ru

Архив погоды в Павельце (Рязанская область, Россия)

Время
(UTC), дата
18 16.07
21 16.07
00 17.07
03 17.07
06 17.07
09 17.07
12 17.07
15 17.07
18 17.07
21 17.07
00 18.07
03 18.07
06 18.07
09 18.07
12 18.07
15 18.07
18 18.07
21 18.07
00 19.07
03 19.07
06 19.07
09 19.07
12 19.07
15 19.07
18 19.07
21 19.07
00 20.07
03 20.07
06 20.07
09 20.07
12 20.07
15 20.07
18 20.07
21 20.07
00 21.07
03 21.07
06 21.07
09 21.07
12 21.07
15 21.07
18 21.07
21 21.07
00 22.07
03 22.07
06 22.07
09 22.07
12 22.07
15 22.07
18 22.07
21 22.07
00 23.07
03 23.07
06 23.07
09 23.07
12 23.07
15 23.07
Ветер
(напр.,м/с)
Видим. Явления Облачность Т
(С)
Тd
(С)
f
(%)
Тe
(С)
Тes
(С)
Комфортность P
(гПа)
Po
(гПа)
Тmin
(С)
Tmax
(С)
R
(мм)
R24
(мм)
S
(см)
С 1 10 км 8/4 600 м
[Sc diur, vesp Ac trans Ci fib]
+25.3 +19.2 69 +30 +30 душно 1015.5 991.6
штиль 0 10 км ясно +20.7 +18.2 86 +24 +24 комфорт 1016.0 991.7
СЗ 1 10 км ясно +18.8 +18.1 96 +21 +21 комфорт 1016.8 992.3
С 1 10 км 3/0
[Ac trans Ci fib]
+20.7 +17.5 82 +26 +27 душно 1017.2 992.8 +18.2
С 1 10 км 8/0
[Ci fib]
+26.8 +15.6 50 +30 +39 душно 1016.6 992.8
Ю 1 10 км 8/4 600 м
[Cu med, cong Ci fib]
+30.7 +15.0 39 +33 +43 душно 1016.6 993.0
ЮЗ 2 10 км 8/5 600 м
[Cu med, cong Ci fib]
+31.6 +15.3 37 +34 +39 душно 1015.6 992.1
СЗ 2 10 км 5/4 600 м
[Cu med, cong Ci fib]
+30.9 +15.8 40 +34 +35 душно 1014.8 991.3 +32.7
С 1 10 км 3/0
[Ci fib]
+25.0 +17.4 63 +29 +29 душно 1015.6 991.7
С 2 10 км 4/0
[Ci fib]
+22.3 +17.9 76 +27 +27 душно 1015.9 991.7
штиль 0 10 км 4/0
[Ci fib]
+20.3 +17.5 84 +23 +23 комфорт 1015.3 991.0
штиль 0 10 км 6/0
[Ac cast Ci fib]
+21.4 +19.6 89 +26 +27 душно 1014.9 990.7 +18.6
З 1 10 км ясно +28.7 +19.1 56 +34 +45 очень душно 1013.9 990.3
З 2 10 км 6/3 600 м
[Cu hum Ci fib]
+30.9 +17.9 46 +35 +45 очень душно 1013.0 989.5
З 1 10 км 8/8 600 м
[Cu hum]
+31.8 +17.7 43 +36 +38 очень душно 1012.1 988.7
СЗ 2 10 км 8/5 600 м
[Cb calv Ci fib]
+29.2 +16.9 47 +33 +34 очень душно 1011.6 988.0 +32.5
С 1 10 км 10/6 600 м
[Cb calv Ci fib]
+24.4 +18.5 70 +29 +29 душно 1012.8 988.9
С 1 10 км 10/0
[Ci fib]
+22.2 +18.2 78 +27 +27 душно 1012.3 988.3
СЗ 1 10 км в посл. час ливневой дождь 10/8 600 м
[Cb calv Ci fib]
+20.0 +19.4 96 +24 +24 комфорт 1011.8 987.6
штиль 0 4000 м дымка 9/4 600 м
[Cb calv Ac trans Ci fib]
+19.6 +19.5 99 +22 +23 комфорт 1010.4 986.2 +18.7 3
штиль 0 4000 м слаб. ливневой дождь 10/8 600 м
[Cb cap Ci ing]
+21.3 +19.5 89 +26 +28 душно 1009.8 985.7
СЗ 2 10 км {гроза, ливн. дождь} 10/8 600 м
[Cb cap Ci ing]
+19.2 +18.1 93 +22 +24 комфорт 1010.8 986.5
С 4 10 км {гроза, ливн. дождь} 10/8 600 м
[Cb cap Ci ing]
+19.3 +16.6 84 +21 +22 комфорт 1011.4 987.1
С 3 10 км 8/4 600 м
[Cb cap Ac trans Ci fib]
+20.5 +16.0 75 +24 +25 комфорт 1010.8 986.6 +22.2 6
СЗ 1 10 км 8/4 600 м
[Cb cap Ac trans Ci fib]
+19.2 +16.5 84 +22 +22 комфорт 1010.7 986.4
штиль 0 4000 м дымка ясно +15.1 +14.9 99 +15 +15 1011.0 986.3
штиль 0 4000 м дымка 6/0
[Ac trans Ci fib]
+14.4 +14.3 99 +14 +14 1010.1 985.4
штиль 0 4000 м дымка 3/0
[Ac trans Ci fib]
+16.1 +16.0 99 +16 +17 1009.3 984.8 +13.7
СЗ 1 10 км 3/1 600 м
[Cu med, cong Ci fib]
+22.0 +16.3 70 +26 +35 душно 1008.6 984.6
СЗ 2 10 км 8/6 600 м
[Cu med, cong Ci fib]
+25.1 +13.6 49 +27 +33 жарко 1008.0 984.2
СЗ 2 10 км 8/6 600 м
[Cu med, cong Ci fib]
+26.5 +13.3 44 +28 +32 жарко 1007.2 983.5
СЗ 2 10 км 6/5 600 м
[Cu med, cong Ci fib]
+25.5 +12.7 45 +27 +28 жарко 1007.1 983.3 +27.2
штиль 0 10 км 8/0
[Ac lent Ci fib]
+19.5 +14.5 73 +21 +21 комфорт 1008.4 984.1
штиль 0 10 км 10/0
[Ac lent Ci fib]
+16.4 +14.2 87 +16 +16 1009.0 984.5
штиль 0 10 км 8/0
[Ac lent Ci fib]
+15.3 +14.2 93 +15 +15 1009.3 984.7
СЗ 1 10 км 4/0
[Ac lent Ci fib]
+17.4 +14.9 85 +18 +19 1008.9 984.5 +14.9
З 1 10 км 3/0
[Ac trans]
+23.1 +15.2 61 +27 +36 душно 1008.9 984.9
З 1 10 км 8/8 600 м
[Cu hum]
+24.2 +12.8 49 +26 +30 жарко 1008.9 985.0
СЗ 1 10 км 8/8 600 м
[Cu hum]
+26.3 +11.8 40 +28 +30 жарко 1008.0 984.3
СЗ 1 10 км 6/6 600 м
[Cu hum]
+26.0 +11.0 39 +27 +28 жарко 1007.8 984.0 +27.0
штиль 0 10 км 3/3 600 м
[Sc diur, vesp]
+18.9 +13.7 72 +20 +20 1009.1 984.8
штиль 0 10 км ясно +16.2 +13.1 82 +16 +16 1009.4 984.8
штиль 0 10 км ясно +14.4 +13.3 93 +14 +14 1009.4 984.7
З 1 10 км 3/0
[Ac trans]
+16.3 +14.5 89 +17 +18 1009.6 985.1 +14.0
З 1 10 км ясно +22.9 +14.6 59 +27 +37 душно 1009.1 985.2
ЮЗ 2 10 км 6/5 600 м
[Cu hum Ci fib]
+25.2 +13.4 48 +27 +35 жарко 1008.6 984.8
З 1 10 км 8/6 600 м
[Cu med, cong Ci fib]
+27.2 +11.9 39 +28 +33 жарко 1008.2 984.6
СВ 1 10 км гроза без осадков 10/8 600 м
[Cb calv Ci fib]
+20.3 +13.8 66 +24 +24 комфорт 1009.8 985.5 +27.8
СВ 1 4000 м дымка {гроза, ливн. дождь} 10/6 600 м
[Sc diur, vesp Ac trans Ci fib]
+15.9 +15.4 97 +17 +17 1010.6 986.0
СЗ 1 4000 м дымка 8/0
[Ac trans Ci fib]
+14.8 +14.4 97 +15 +15 1011.4 986.7
СВ 2 4000 м дымка 6/0
[Ac trans Ci fib]
+14.6 +14.2 97 +14 +14 1011.8 987.0
СВ 2 4000 м дымка 10/10 300 м
[St]
+15.7 +15.5 99 +16 +16 1012.2 987.5 +14.3 24
СВ 3 10 км 9/0
[Ac cast Ci fib]
+18.8 +15.7 82 +20 +23 1012.3 987.9
С 3 10 км 10/8 600 м
[Cb cap Ci ing]
+20.4 +11.9 58 +23 +25 комфорт 1012.6 988.3
СВ 4 10 км 8/5 600 м
[Cu med, cong Ci fib]
+22.5 +8.5 41 +24 +27 комфорт 1012.3 988.2
СВ 3 {10} 10 км 6/4 600 м
[Cu hum Ci fib]
+21.5 +7.6 41 +22 +24 комфорт 1012.4 988.2 +22.5
Местоположение метеостанции Павелец (Рязанская область, Россия): широта 53.78 долгота 39.25 высота над уровнем моря 209 м.
В архиве по умолчанию представлена погода в Павельце за последнюю неделю. Архивные данные за месяц целиком и за предыдущие месяцы, начиная с января 2011 года, Вы можете получить, выбрав интересующий диапазон дат из раскрывающегося списка и нажав кнопку "Найти!".
*Определитесь, кто Вы:
Внимание! Время в таблицах - всемирное. Для получения местного времени необходимо прибавить поправку, которая равна 3 ч.
Некоторые строки с данными для отдельных станций могут быть выделены курсивом. Это означает, что фактические данные отсутствуют по различным причинам, а приведенные значения являются расчетными модельными данными для данного пункта наблюдений.
Смотрите также архив погоды в соседних городах и на ближайших метеорологических станциях:
Партнеры нашего сайта:      
Пояснения к столбцам:
  • Ветер - указаны скорость ветра в м/с - средняя за 10 мин, порывы в срок и между сроками (в фигурных скобках) и направление, откуда дует ветер: С - северный,
  • СВ - северо-восточный, В - восточный, ЮВ - юго-восточный, Ю - южный, ЮЗ - юго-западный, З - западный, СЗ - северо-западный.
  • Видимость - горизонтальная дальность видимости в метрах или километрах. При видимости от 1 до 10 км при отсутствии осадков обычно наблюдается дымка, при ухудшении видимости до 1 км и менее - туман. В сухую погоду видимость может ухудшаться дымом, пылью или мглою.
  • Явления - указаны атмосферные явления, наблюдавшиеся в срок или в последний час перед сроком; фигурными скобками обозначены явления, наблюдавшиеся между сроками (за 1-3 часа до срока); квадратными скобками обозначены град или гололедные отложения с указанием их диаметра в мм.
  • Облачность - указаны через наклонную черту общая и нижняя облачность в баллах и высота нижней границы облаков в метрах; квадратными скобками обозначены формы облаков: Ci - перистые, Cs - перисто-слоистые, Cc - перисто-кучевые, Ac - высококучевые, As - высокослоистые, Sc - слоисто-кучевые, Ns - слоисто-дождевые, Cu - кучевые, Cb - кучево-дождевые. Подробнее классификацию облаков см. в Атласе облаков (PDF).
  • T - Температура воздуха - температура, измеренная на высоте 2 м над землей.
  • Td - Температура точки росы - температура, при понижении до которой содержащийся в воздухе водяной пар достигнет насыщения.
  • f - Относительная влажность воздуха - влажноcть воздуха, измеренная на высоте 2 м над землей.
  • Te - Эффективная температура - температура, которую ощущает одетый по сезону человек в тени. Характеристика душности погоды. При расчете учитывается влияние влажности воздуха и скорости ветра на теплоощущения человека.
  • Tes - Эффективная температура на солнце - температура, которую ощущает человек, с поправкой на солнечный нагрев. Характеристика знойности погоды. Зависит от высоты солнца над горизонтом, облачности и скорости ветра. Ночью, в пасмурную погоду, а также при ветре 12 м/с и более поправка равна нулю.
  • P - Атмосферное давление - приведенное к уровню моря атмосферное давление.
  • Po - Атмосферное давление - измеренное на уровне метеостанции атмосферное давление.
  • Tmin - Минимальная температура - минимум температуры воздуха на высоте 2 м над землей.
  • Tmax - Максимальная температура - максимум температуры воздуха на высоте 2 м над землей.
  • R - Количество осадков - Количество выпавших осадков за период времени, мм. При наведении курсора мыши на число - период времени, за который выпало указанное количество осадков.
  • R24 - Количество осадков - Количество выпавших осадков за 24 часа, мм.
  • S - Снежный покров - Высота снежного покрова, см. При наведении курсора мыши на число - состояние снежного покрова и степень покрытия местности в баллах.